Regional Weather Roundup
Issued by NWS

Home | Current Version | Previous Version | Graphics & Text | Print | Product List | Glossary Off
Versions: 1 2 3 4 5 6 7 8 9 10 11 12 13 14 15 16 17 18 19 20 21 22 23 24 25 26 27 28 29 30 31 32 33 34 35 36 37 38 39 40 41 42 43 44 45 46 47 48 49 50

000
ASUS43 KTOP 011959
RWRKS

WEATHER ROUNDUP FOR KANSAS
NATIONAL WEATHER SERVICE GOODLAND KS
300 PM CDT WED OCT 01 2014

NOTE:  "FAIR" INDICATES FEW OR NO CLOUDS BELOW 12,000 FEET WITH NO
SIGNIFICANT WEATHER AND/OR OBSTRUCTIONS TO VISIBILITY.

KSZ001>006-013>018-027>032-041>047-012100-
NORTHWEST KANSAS

CITY           SKY/WX    TMP DP  RH WIND       PRES   REMARKS
GOODLAND       SUNNY     75  41  29 CALM      29.80F
HAYS           MOSUNNY   72  61  68 NE6       29.74F
HILL CITY      MOSUNNY   78  56  46 VRB3      29.74F
RUSSELL        MOSUNNY   75  63  66 N5        29.71F
$$

KSZ061>065-074>080-084>089-012100-
SOUTHWEST KANSAS

CITY           SKY/WX    TMP DP  RH WIND       PRES   REMARKS
DODGE CITY     SUNNY     79  51  37 NE7G18    29.74F
GARDEN CITY    SUNNY     79  44  28 NE8       29.75F
GREAT BEND     MOSUNNY   75  63  64 NE7       29.72F
LIBERAL        SUNNY     82  43  24 NE3       29.76F
$$

KSZ066>073-081>083-090>101-012100-
SOUTHEAST KANSAS

CITY           SKY/WX    TMP DP  RH WIND       PRES   REMARKS
CHANUTE        CLOUDY    81  70  69 S7        29.69F
COFFEYVILLE    MOSUNNY   83  68  60 S14       29.69F
HUTCHINSON     CLOUDY    86  63  45 E8        29.67F
MEDICINE LODGE   N/A     88  53  30 S13G20    29.65F
NEWTON         MOSUNNY   81  64  57 SE9       29.71F
PARSONS        LGT RAIN  84  69  60 S12G20    29.70F
WICHITA INTL   MOSUNNY   89  63  41 SE13G18   29.66F
WICHITA JABRA  MOSUNNY   86  64  47 S14       29.67F
WINFIELD       PTSUNNY   88  67  49 S15G24    29.68F
$$

KSZ007>012-019>026-033>040-048>060-102>105-012100-
NORTHEAST KANSAS

CITY           SKY/WX    TMP DP  RH WIND       PRES   REMARKS
CONCORDIA      MOSUNNY   79  65  62 VRB3      29.71F
EMPORIA        PTSUNNY   82  68  62 S14       29.70F
LAWRENCE       SUNNY     81  66  60 S6        29.70F
MANHATTAN      MOSUNNY   82  66  58 S6        29.69F
OLATHE IND     PTSUNNY   77  68  73 SE7       29.73F
OLATHE EXE     CLOUDY    76  69  79 S3        29.73F
SALINA         SUNNY     79  64  60 SE5       29.69F
TOPEKA BILLARD PTSUNNY   86  66  51 S9        29.70F
TOPEKA FORBES  MOSUNNY   83  65  54 SE9       29.70F
$$



USA.gov is the U.S. government's official web portal to all federal, state and local government web resources and services.